Regional Weather Roundup
Issued by NWS

Home | Current Version | Previous Version | Graphics & Text | Print | Product List | Glossary On
Versions: 1 2 3 4 5 6 7 8 9 10 11 12 13 14 15 16 17 18 19 20 21 22 23 24 25 26 27 28 29 30 31 32 33 34 35 36 37 38 39 40 41 42 43 44 45 46 47 48 49 50
695
ASUS43 KMPX 252310
RWRMN
WEATHER ROUNDUP FOR MINNESOTA
NATIONAL WEATHER SERVICE TWIN CITIES/CHANHASSEN MN
600 PM CDT SAT MAR 25 2017


NOTE: "FAIR" INDICATES FEW OR NO CLOUDS BELOW 12,000 FEET WITH NO
SIGNIFICANT WEATHER AND/OR OBSTRUCTIONS TO VISIBILITY. N/A MEANS
CURRENT SKY AND/OR WEATHER CONDITIONS ARE NOT AVAILABLE.

MNZ060>063-068>070-260000-
   Twin Cities Metro

CITY           SKY/WX    TMP DP  RH WIND       PRES   REMARKS
TWIN CITIES    CLOUDY    43  32  65 NE13      30.06F
ST PAUL        CLOUDY    43  34  70 NE9       30.08F
CRYSTAL        CLOUDY    42  31  64 NE8       30.06F
BLAINE         CLOUDY    43  36  75 NE9       30.07F
LAKEVILLE      CLOUDY    37  36  93 E12       30.04S FOG
EDEN PRAIRIE   CLOUDY    43  33  68 NE9       30.05S
SOUTH ST PAUL  CLOUDY    43  33  67 NE10G17   30.06S
LAKE ELMO      CLOUDY    43  34  70 NE12      30.08S
$$
MNZ001>005-007-008-013>017-022>024-027-028-260000-
   Northwest Minnesota

CITY           SKY/WX    TMP DP  RH WIND       PRES   REMARKS
BEMIDJI        CLOUDY    41  29  63 SE13      30.07S
HALLOCK        MOSUNNY   37  34  87 S9        30.04S
ROSEAU         MOSUNNY   43  34  70 S6        30.05S
WARROAD        CLOUDY    43  32  65 S7        30.06S
THIEF RVR FALL MOSUNNY  N/A N/A N/A SE8       30.04F
CROOKSTON      MOSUNNY   41  37  87 SW8       30.05R
FOSSTON        CLOUDY    48  37  66 E3        30.04F
DETROIT LAKES  CLOUDY    46  32  57 SE9       30.04F
MOORHEAD       CLOUDY    41  34  75 S9        30.05F
PARK RAPIDS    CLOUDY    46  26  45 E9        30.05F
MAHNOMEN       FAIR      47  32  55 SE9       30.03F
$$
MNZ006-009>011-018-025>026-260000-
   North Central Minnesota

CITY           SKY/WX    TMP DP  RH WIND       PRES   REMARKS
BAUDETTE       CLOUDY    43  27  53 SE12      30.07F
FLAG ISLAND    CLOUDY    36  28  75 S13       30.06F
INTL FALLS     MOSUNNY   40  26  57 SE12      30.11F
WASKISH        CLOUDY    43  30  61 SE9       30.07F
BIG FORK       CLOUDY    39  28  65 E9        30.12F
LONGVILLE      CLOUDY    43  28  56 E7        30.09S
GRAND RAPIDS   CLOUDY    36  27  69 VRB6G16   30.14S
CRANE LAKE     SUNNY     43  25  49 SE5       30.15F
ORR            SUNNY     39  23  52 CALM      30.11F
COOK           MOSUNNY   37  27  65 SE8       30.15S
WALKER         FAIR      39  28  65 E8        30.08F
$$
MNZ012-019>021-037-260000-
   Northeast Minnesota

CITY           SKY/WX    TMP DP  RH WIND       PRES   REMARKS
DULUTH         CLOUDY    31  28  89 E15G23    30.15S WCI  20
ELY            CLOUDY    34  25  69 SE10      30.17S WCI  26
HIBBING        CLOUDY    33  27  78 SE13      30.14F WCI  24
EVELETH        CLOUDY    32  24  73 SE12      30.17S WCI  23
DULUTH HARBOR  CLOUDY    34  30  86 NE28      30.19S WCI  20
TWO HARBORS    CLOUDY    34  28  80 NE14G23   30.17S WCI  24
SILVER BAY     CLOUDY    30  27  86 E14G20    30.19S WCI  20
GRAND MARAIS     N/A     32  26  78 E21       30.25F WCI  20
G MARAIS ARPRT CLOUDY    28  18  64 E8        30.20S WCI  20
$$
MNZ029>031-032-039>041-046>048-054>057-064-260000-
   West Central Minnesota

CITY           SKY/WX    TMP DP  RH WIND       PRES   REMARKS
FERGUS FALLS   CLOUDY    46  32  57 S7        30.07F
WHEATON        CLOUDY    41  32  70 E9        30.08S
MORRIS         CLOUDY    39  34  81 SE14      30.05F
ALEXANDRIA     PTSUNNY   41  32  70 SE10      30.06F
ELBOW LAKE     FAIR      44  32  64 SE9       30.06S
WADENA         CLOUDY    46  30  53 E8        30.05F
GLENWOOD       CLOUDY    39  34  81 E14       30.07S
APPLETON       CLOUDY    39  34  81 CALM      30.05F
BENSON         CLOUDY    43  30  61 SE6       30.08F
ORTONVILLE     CLOUDY    37  32  81 SE8       30.05F
MADISON        CLOUDY    43  37  81 E10       30.05F
WILLMAR        CLOUDY    43  36  75 E9        30.07S
$$
MNZ033>034-036-042>043-049>051-058-059-260000-
   Central Minnesota

CITY           SKY/WX    TMP DP  RH WIND       PRES   REMARKS
ST CLOUD       CLOUDY    43  34  70 NE9       30.07F
SAUK CENTRE    MOCLDY    41  33  73 SE8       30.07F
PAYNESVILLE      N/A     40  33  75 NE8       30.06F
AITKIN         SUNNY     43  28  56 E12G17    30.10R
PINE RIVER     CLOUDY    41  30  65 E12       30.12R
BRAINERD       SUNNY     45  30  55 E9        30.08F
STAPLES        SUNNY     46  27  46 E7        30.06F
LONG PRAIRIE   FAIR      45  32  61 E7        30.07S
LITTLE FALLS   SUNNY     46  32  57 E7        30.07F
LITCHFIELD     CLOUDY    43  36  75 E10       30.06F
BUFFALO        CLOUDY    41  33  72 NE9       30.07F
MAPLE LAKE     CLOUDY    42  35  77 E10       30.07F
HUTCHINSON     CLOUDY    42  36  79 E9G16     30.06S
$$
MNZ037-044-045-052-053-260000-
   East Central Minnesota

CITY           SKY/WX    TMP DP  RH WIND       PRES   REMARKS
PRINCETON      CLOUDY    46  34  61 E8        30.08F
MORA           PTSUNNY   45  32  61 E10       30.10S
CAMBRIDGE      CLOUDY    46  34  61 E7        30.07S
RUSH CITY      CLOUDY    44  32  63 E7        30.09F
MOOSE LAKE     CLOUDY    37  30  75 NE9G16    30.11S
CLOQUET        CLOUDY    32  28  86 E10G17    30.15R WCI  24
MCGREGOR       CLOUDY    36  30  80 E12G17    30.13S
$$
MNZ071>073-080-081-089-090-097-098-260000-
   Southwest Minnesota

CITY           SKY/WX    TMP DP  RH WIND       PRES   REMARKS
MONTEVIDEO     CLOUDY    39  36  87 E9        30.06F
GRANITE FALLS  CLOUDY    42  37  82 NE10      30.06S
CANBY          CLOUDY    41  37  85 NE10      30.05S
MARSHALL       CLOUDY    40  37  89 E12       30.03S
REDWOOD FALLS  CLOUDY    42  35  76 E10       30.03F
OLIVIA         CLOUDY    41  34  75 NE10G16   30.03F
PIPESTONE      CLOUDY    39  34  81 E9        29.99S
WINDOM         CLOUDY    37  37 100 NE13      30.01S FOG
WORTHINGTON    MIX PCPN  37  36  96 E13       29.99S FOG
JACKSON        LGT RAIN  36  36 100 E13       30.00S
TRACY          CLOUDY    41  38  87 E9        30.02S
SLAYTON        CLOUDY    38  37  95 E14       30.01R FOG
$$
MNZ065>067-074>077-082>085-091>093-260000-
   South Central Minnesota

CITY           SKY/WX    TMP DP  RH WIND       PRES   REMARKS
MANKATO        LGT RAIN  38  36  92 NE12      30.03S FOG
NEW ULM        CLOUDY    41  34  75 E9        30.03S
ST JAMES       MIX PCPN  37  37 100 CALM      30.04R
FAIRMONT       LGT RAIN  38  37  97 NE12      30.01S FOG
GLENCOE        CLOUDY    41  37  83 NE8       30.04S
FARIBAULT      LGT RAIN  37  36  93 NE9       30.04R
OWATONNA       CLOUDY    39  34  81 NE13      30.01F
WASECA         CLOUDY    36  34  93 NE10      30.03R FOG
ALBERT LEA     DRIZZLE   37  36  93 NE14      29.99S
$$
MNZ078>079-086>088-094>096-260000-
   Southeast Minnesota

CITY           SKY/WX    TMP DP  RH WIND       PRES   REMARKS
ROCHESTER      LGT RAIN  37  36  96 NE13      30.00F
RED WING       HVY RAIN  39  34  81 E9        30.05S
STANTON        DRIZZLE   39  36  88 NE8       30.03S
DODGE CENTER   CLOUDY    37  36  93 NE17      30.00S
WINONA         CLOUDY    41  34  75 E10       30.05S
AUSTIN         LGT RAIN  37  36  93 NE14G21   29.98S
PRESTON        RAIN      36  34  93 NE10      30.00S
$$
ABBREVIATIONS USED IN REMARKS
   TC - TEMPERATURES IN CELSIUS
  WCI - WIND CHILL INDEX
   HX - HEAT INDEX
  VSB - VISIBILITY
$$




USA.gov is the U.S. government's official web portal to all federal, state and local government web resources and services.